Regional Weather Roundup
Issued by NWS

Home | Current Version | Previous Version | Text Only | Print | Product List | Glossary On
Versions: 1 2 3 4 5 6 7 8 9 10 11 12 13 14 15 16 17 18 19 20 21 22 23 24 25 26 27 28 29 30 31 32 33 34 35 36 37 38 39 40 41 42 43 44 45 46 47 48 49 50
608
ASCA44 KEWX 300520
RWRMX

LATIN AMERICA AND CARIBBEAN REGIONAL WEATHER ROUNDUP
NATIONAL WEATHER SERVICE AUSTIN/SAN ANTONIO TX
1200 AM CDT SAT APR 30 2016

NOTE: "FAIR" INDICATED FEW OR NO CLOUDS BELOW 12,000 FEET WITH NO
SIGNIFICANT WEATHER AND/OR OBSTRUCTIONS TO VISIBILITY.

BAJA CALIFORNIA

CITY           SKY/WX    TMP DP  RH WIND       PRES   REMARKS
LA PAZ         MOCLDY    70  59  68 S6        29.92R
MEXICALI       CLEAR     70  39  32 S6        29.78S
S.J. DEL CABO  CLOUDY    72  59  64 NW3       29.90S
TIJUANA        CLOUDY    59  48  67 SW6       29.97S

NORTHWESTERN MEXICO

CITY           SKY/WX    TMP DP  RH WIND       PRES   REMARKS
CULIACAN         N/A    N/A N/A N/A MISG        N/A
HERMOSILLO     CLEAR     68  45  42 S3        29.89F
LOS MOCHIS       N/A    N/A N/A N/A MISG        N/A

NORTHEASTERN MEXICO

CITY           SKY/WX    TMP DP  RH WIND       PRES   REMARKS
MONCLOVA         N/A    N/A N/A N/A MISG        N/A
MONTERREY      MOCLDY    73  66  78 CALM      29.64F
REYNOSA        PTCLDY    75  72  88 SE5       29.62F
CD. VICTORIA     N/A    N/A N/A N/A MISG        N/A

WESTERN MEXICO

CITY           SKY/WX    TMP DP  RH WIND       PRES   REMARKS
AGUASCALIENTES CLEAR     61   5  11 CALM      30.13R
COLIMA           N/A    N/A N/A N/A MISG        N/A
DEL BAJIO      MOCLDY    68  21  17 NW9       30.17S
GUADALAJARA    CLEAR     70  30  23 CALM      30.08R
MAZATLAN       PTCLDY    66  63  88 CALM      29.88S
P. VALLARTA    CLOUDY    75  66  73 W3        29.86F
URUAPAN          N/A    N/A N/A N/A MISG        N/A
ZACATECAS      CLEAR     55   9  15 S12       30.15F

CENTRAL MEXICO

CITY           SKY/WX    TMP DP  RH WIND       PRES   REMARKS
CUERNAVACA       N/A    N/A N/A N/A MISG        N/A
MEXICO CITY    MOCLDY    70  27  19 SE5       30.22S
MORELIA        MOCLDY    63  25  23 SW8       30.13S
POZA RICA        N/A    N/A N/A N/A MISG        N/A
S. LUIS POTOSI PTCLDY    68   1   7 W9        30.07S
TAMPICO          N/A    N/A N/A N/A MISG        N/A
TOLUCA         PTCLDY    55  32  41 CALM      30.33R

SOUTHERN MEXICO

CITY           SKY/WX    TMP DP  RH WIND       PRES   REMARKS
ACAPULCO       PTCLDY    79  73  83 NW7       29.84S
B. DE HUATULCO   N/A    N/A N/A N/A MISG        N/A
P. ESCONDIDO     N/A    N/A N/A N/A MISG        N/A
VERACRUZ       MOCLDY    82  68  61 S8        29.63S

YUCATAN PENINSULA

CITY           SKY/WX    TMP DP  RH WIND       PRES   REMARKS
CAMPECHE         N/A    N/A N/A N/A MISG        N/A
CANCUN         PTCLDY    81  75  83 E14       29.86F
CHETUMAL         N/A    N/A N/A N/A MISG        N/A
CD. DEL CARMEN   N/A    N/A N/A N/A MISG        N/A
COZUMEL        PTCLDY    77  73  88 SE9       29.85F
MERIDA         CLEAR     84  72  65 SE14      29.77S
MINATITLAN       N/A    N/A N/A N/A MISG        N/A
TAPACHULA      CLEAR     82  75  78 CALM      29.80R
TUX. GUTIERREZ   N/A    N/A N/A N/A MISG        N/A
VILLAHERMOSA   PTCLDY    88  77  70 CALM      29.68F HX 100

CENTRAL AMERICA

CITY           SKY/WX    TMP DP  RH WIND       PRES   REMARKS
MANAGUA        PTCLDY    84  77  79 NW9       29.77S HX  94

CARIBBEAN

CITY           SKY/WX    TMP DP  RH WIND       PRES   REMARKS
ARUBA          PTCLDY    82  77  83 E20       29.80F HX  91
CURACAO        PTCLDY    82  79  89 E15       29.83F HX  93
KINGSTON       PTCLDY    82  75  78 SW3       29.83F
NASSAU         PTCLDY    73  66  78 NE8       29.99S
SAN JUAN       PTCLDY    79  75  89 CALM      29.90F
SANTO DOMINGO  MOCLDY    73  72  94 CALM      29.89F THUNDER
ST. CROIX      PTCLDY    82  73  74 SE6       29.92F
ST. THOMAS     CLEAR     82  75  78 SE10      29.91F

$$





USA.gov is the U.S. government's official web portal to all federal, state and local government web resources and services.